Arlington, WA

9:57 PM PST on December 08, 2016 (GMT -0800)
Arlington Municipal

Weather History for KAWO - March, 2014

Change the Weather History Date:

Sunday, March 30, 2014

  Actual Average Record
Temperature  
Mean Temperature 48 °F -  
Max Temperature 53 °F 0 °F 66 °F (2016)
Min Temperature 39 °F - 35 °F (1998)
Degree Days  
Heating Degree Days 18    
Moisture  
Dew Point 39 °F    
Average Humidity 77    
Maximum Humidity 87    
Minimum Humidity 58    
Precipitation  
Precipitation 0.00 in - - ()
Sea Level Pressure  
Sea Level Pressure 29.94 in    
Wind  
Wind Speed 11 mph (SSE)    
Max Wind Speed 18 mph    
Max Gust Speed 23 mph    
Visibility 10 miles    
Events      
Averages and records for this station are not official NWS values.
T = Trace of Precipitation, MM = Missing Value Source: NWS Daily Summary

Daily Weather History Graph

Daily Weather History Graph

Search for Another Location

Airport or City:

Trip Planner

Search our weather history database for the weather conditions in past years. The results will help you decide how hot, cold, wet, or windy it might be!

Date:

Astronomy

Mar. 30, 2014 Rise Set
Actual Time 6:50 AM PDT 7:36 PM PDT
Civil Twilight 6:19 AM PDT 8:07 PM PDT
Nautical Twilight 5:41 AM PDT 8:45 PM PDT
Astronomical Twilight 5:02 AM PDT 9:24 PM PDT
Moon 6:39 AM PDT (3/30) 7:57 PM PDT (3/30)
Length of Visible Light 13h 48m
Length of Day
12h 45m
New Moon, 0% of the Moon is Illuminated
Mar 30
New Moon
Apr 7
First Quarter
Apr 15
Full
Apr 22
Last Quarter
Apr 28
New

Hourly Weather History & Observations

Time (PDT) Temp. Windchill Dew Point Humidity Pressure Visibility Wind Dir Wind Speed Gust Speed Precip Events Conditions
12:15 AM 44.6 °F 37.8 °F 41.0 °F 87% 29.82 in 10.0 mi SSE 15.0 mph - N/A   Overcast
12:35 AM 44.6 °F 38.4 °F 41.0 °F 87% 29.82 in 10.0 mi SSE 12.7 mph - N/A   Overcast
12:55 AM 44.6 °F 38.1 °F 41.0 °F 87% 29.82 in 10.0 mi SSE 13.8 mph - N/A   Overcast
1:15 AM 44.6 °F 37.8 °F 41.0 °F 87% 29.83 in 10.0 mi SSE 15.0 mph - N/A   Overcast
1:35 AM 46.4 °F 41.1 °F 41.0 °F 81% 29.84 in 10.0 mi SSE 11.5 mph - N/A   Overcast
1:55 AM 44.6 °F 38.8 °F 41.0 °F 87% 29.84 in 10.0 mi SSE 11.5 mph - N/A   Overcast
2:15 AM 46.4 °F 41.1 °F 41.0 °F 81% 29.84 in 10.0 mi SSE 11.5 mph - N/A   Overcast
2:35 AM 46.4 °F 41.5 °F 41.0 °F 81% 29.84 in 10.0 mi SSE 10.4 mph - N/A   Overcast
2:55 AM 44.6 °F 39.2 °F 41.0 °F 87% 29.84 in 10.0 mi SSE 10.4 mph - N/A   Overcast
3:15 AM 44.6 °F 39.2 °F 41.0 °F 87% 29.85 in 10.0 mi SSE 10.4 mph - N/A   Overcast
3:35 AM 44.6 °F 39.2 °F 41.0 °F 87% 29.85 in 10.0 mi SE 10.4 mph - N/A   Overcast
3:55 AM 44.6 °F 39.7 °F 41.0 °F 87% 29.85 in 10.0 mi SE 9.2 mph - N/A   Overcast
4:15 AM 44.6 °F 40.2 °F 41.0 °F 87% 29.85 in 10.0 mi SSE 8.1 mph - N/A   Overcast
4:35 AM 44.6 °F 40.2 °F 39.2 °F 81% 29.86 in 10.0 mi SSE 8.1 mph - N/A   Overcast
4:55 AM 44.6 °F 40.7 °F 39.2 °F 81% 29.86 in 10.0 mi South 6.9 mph - N/A   Overcast
5:15 AM 44.6 °F 39.2 °F 39.2 °F 81% 29.86 in 10.0 mi SSE 10.4 mph - N/A   Overcast
5:35 AM 44.6 °F 38.8 °F 39.2 °F 81% 29.87 in 10.0 mi SSE 11.5 mph - N/A   Overcast
5:55 AM 44.6 °F 38.8 °F 39.2 °F 81% 29.88 in 10.0 mi South 11.5 mph - N/A   Overcast
6:15 AM 44.6 °F 38.8 °F 39.2 °F 81% 29.88 in 10.0 mi South 11.5 mph - N/A   Overcast
6:35 AM 44.6 °F 38.8 °F 37.4 °F 76% 29.88 in 10.0 mi South 11.5 mph - N/A   Overcast
6:55 AM 44.6 °F 38.1 °F 39.2 °F 81% 29.89 in 10.0 mi SSE 13.8 mph - N/A   Overcast
7:15 AM 44.6 °F 38.1 °F 37.4 °F 76% 29.89 in 10.0 mi SSE 13.8 mph - N/A   Overcast
7:35 AM 44.6 °F 36.9 °F 37.4 °F 76% 29.90 in 10.0 mi SSE 18.4 mph 23.0 mph N/A   Overcast
7:55 AM 44.6 °F 37.4 °F 37.4 °F 76% 29.91 in 10.0 mi SSE 16.1 mph 21.9 mph N/A   Overcast
8:15 AM 44.6 °F 37.8 °F 37.4 °F 76% 29.92 in 10.0 mi SSE 15.0 mph 21.9 mph N/A   Overcast
8:35 AM 44.6 °F 36.9 °F 37.4 °F 76% 29.92 in 10.0 mi SSE 18.4 mph 23.0 mph N/A   Mostly Cloudy
8:55 AM 44.6 °F 37.4 °F 37.4 °F 76% 29.93 in 10.0 mi SE 16.1 mph 21.9 mph N/A   Overcast
9:15 AM 44.6 °F 38.1 °F 37.4 °F 76% 29.93 in 10.0 mi SSE 13.8 mph - N/A   Overcast
9:35 AM 46.4 °F 41.1 °F 37.4 °F 71% 29.94 in 10.0 mi SSE 11.5 mph 20.7 mph N/A   Overcast
9:55 AM 46.4 °F 40.4 °F 37.4 °F 71% 29.95 in 10.0 mi SSE 13.8 mph - N/A   Overcast
10:15 AM 46.4 °F 39.5 °F 37.4 °F 71% 29.95 in 10.0 mi SSE 17.3 mph - N/A   Overcast
10:35 AM 46.4 °F 40.7 °F 37.4 °F 71% 29.96 in 10.0 mi SSE 12.7 mph - N/A   Overcast
10:55 AM 46.4 °F 39.8 °F 37.4 °F 71% 29.96 in 10.0 mi South 16.1 mph 19.6 mph N/A   Overcast
11:15 AM 46.4 °F 40.1 °F 37.4 °F 71% 29.97 in 10.0 mi SSE 15.0 mph - N/A   Overcast
11:35 AM 46.4 °F 40.7 °F 37.4 °F 71% 29.97 in 10.0 mi South 12.7 mph - N/A   Overcast
11:55 AM 46.4 °F 40.7 °F 39.2 °F 76% 29.97 in 10.0 mi SSE 12.7 mph - N/A   Overcast
12:15 PM 46.4 °F 41.1 °F 39.2 °F 76% 29.98 in 10.0 mi SSE 11.5 mph - N/A   Overcast
12:35 PM 48.2 °F - 39.2 °F 71% 29.98 in 10.0 mi South 10.4 mph - N/A   Overcast
12:55 PM 46.4 °F 41.1 °F 41.0 °F 81% 29.98 in 10.0 mi SE 11.5 mph - N/A   Overcast
1:15 PM 48.2 °F - 42.8 °F 82% 29.98 in 10.0 mi SE 9.2 mph - N/A   Overcast
1:35 PM 48.2 °F - 42.8 °F 82% 29.98 in 10.0 mi SE 8.1 mph - N/A   Overcast
1:55 PM 48.2 °F - 41.0 °F 76% 29.98 in 8.0 mi SE 9.2 mph - N/A   Mostly Cloudy
2:15 PM 48.2 °F - 41.0 °F 76% 29.98 in 10.0 mi SE 9.2 mph - N/A   Mostly Cloudy
2:35 PM 48.2 °F - 41.0 °F 76% 29.98 in 7.0 mi SE 8.1 mph - N/A   Overcast
2:55 PM 50.0 °F - 42.8 °F 76% 29.97 in 10.0 mi East 6.9 mph - N/A   Mostly Cloudy
3:15 PM 51.8 °F - 42.8 °F 71% 29.97 in 10.0 mi SE 8.1 mph - N/A   Mostly Cloudy
3:35 PM 51.8 °F - 39.2 °F 62% 29.97 in 10.0 mi South 6.9 mph - N/A   Scattered Clouds
3:55 PM 53.6 °F - 39.2 °F 58% 29.97 in 10.0 mi South 3.5 mph - N/A   Partly Cloudy
4:15 PM 53.6 °F - 41.0 °F 62% 29.97 in 10.0 mi Calm Calm - N/A   Scattered Clouds
4:35 PM 53.6 °F - 39.2 °F 58% 29.97 in 10.0 mi Calm Calm - N/A   Overcast
4:55 PM 53.6 °F - 39.2 °F 58% 29.97 in 10.0 mi SSE 8.1 mph - N/A   Overcast
5:15 PM 51.8 °F - 37.4 °F 58% 29.97 in 10.0 mi SSW 10.4 mph - N/A   Overcast
5:35 PM 51.8 °F - 37.4 °F 58% 29.97 in 10.0 mi SSW 6.9 mph - N/A   Overcast
5:55 PM 50.0 °F - 37.4 °F 62% 29.97 in 10.0 mi South 8.1 mph - N/A   Overcast
6:15 PM 50.0 °F - 37.4 °F 62% 29.98 in 10.0 mi Calm Calm - N/A   Overcast
6:35 PM 50.0 °F - 37.4 °F 62% 29.98 in 10.0 mi Calm Calm - N/A   Overcast
6:55 PM 48.2 °F - 37.4 °F 66% 29.99 in 10.0 mi WSW 6.9 mph - N/A   Overcast
7:15 PM 46.4 °F 41.9 °F 37.4 °F 71% 30.00 in 10.0 mi SW 9.2 mph - N/A   Overcast
7:35 PM 46.4 °F - 39.2 °F 76% 30.00 in 10.0 mi Calm Calm - N/A   Overcast
7:55 PM 44.6 °F 41.4 °F 39.2 °F 81% 30.00 in 10.0 mi NNE 5.8 mph - N/A   Overcast
8:15 PM 44.6 °F 41.4 °F 39.2 °F 81% 30.00 in 10.0 mi ENE 5.8 mph - N/A   Overcast
8:35 PM 44.6 °F 42.2 °F 39.2 °F 81% 30.01 in 10.0 mi NE 4.6 mph - N/A   Overcast
8:55 PM 44.6 °F - 39.2 °F 81% 30.01 in 10.0 mi Calm Calm - N/A   Overcast
9:15 PM 44.6 °F - 39.2 °F 81% 30.02 in 10.0 mi Calm Calm - N/A   Overcast
9:35 PM 42.8 °F 41.1 °F 39.2 °F 87% 30.02 in 10.0 mi NNE 3.5 mph - N/A   Overcast
9:55 PM 44.6 °F - 39.2 °F 81% 30.02 in 10.0 mi Calm Calm - N/A   Overcast
10:15 PM 44.6 °F 43.1 °F 39.2 °F 81% 30.02 in 10.0 mi NNE 3.5 mph - N/A   Overcast
10:35 PM 42.8 °F 38.6 °F 39.2 °F 87% 30.02 in 10.0 mi NNE 6.9 mph - N/A   Overcast
10:55 PM 42.8 °F 39.3 °F 39.2 °F 87% 30.02 in 10.0 mi NE 5.8 mph - N/A   Overcast
11:15 PM 42.8 °F - 39.2 °F 87% 30.02 in 10.0 mi Calm Calm - N/A   Overcast
11:35 PM 42.8 °F - 37.4 °F 81% 30.02 in 10.0 mi Calm Calm - N/A   Mostly Cloudy
11:55 PM 39.2 °F - 35.6 °F 87% 30.01 in 10.0 mi Calm Calm - N/A   Partly Cloudy